Time,TemperatureF,DewpointF,PressureIn,WindDirection,WindDirectionDegrees,WindSpeedMPH,WindSpeedGustMPH,Humidity,HourlyPrecipIn,Conditions,Clouds,dailyrainin,SolarRadiationWatts/m^2,SoftwareType,DateUTC
2013-08-13 00:01:00,65.7,49.5,30.00,North,0,0.0,0.0,56,0.00,CLR,,0.00,0.0,WeatherDisplay:10.37,2013-08-12 22:01:00,
2013-08-13 00:06:00,65.7,50.0,30.00,North,0,0.0,0.0,57,0.00,CLR,,0.00,0.0,WeatherDisplay:10.37,2013-08-12 22:06:00,
2013-08-13 00:11:00,65.5,49.8,30.00,North,0,0.0,0.0,57,0.00,CLR,,0.00,0.0,WeatherDisplay:10.37,2013-08-12 22:11:00,
2013-08-13 00:16:00,65.5,50.3,30.00,North,0,0.0,0.0,58,0.00,CLR,,0.00,0.0,WeatherDisplay:10.37,2013-08-12 22:16:00,
2013-08-13 00:21:00,65.3,50.1,30.00,North,0,0.0,0.0,58,0.00,CLR,,0.00,0.0,WeatherDisplay:10.37,2013-08-12 22:21:00,
2013-08-13 00:26:00,65.3,50.1,30.00,North,0,0.0,0.0,58,0.00,CLR,,0.00,0.0,WeatherDisplay:10.37,2013-08-12 22:26:00,
2013-08-13 00:31:00,65.1,49.5,30.00,North,0,0.0,0.0,57,0.00,CLR,,0.00,0.0,WeatherDisplay:10.37,2013-08-12 22:31:00,
2013-08-13 00:37:00,64.9,49.8,30.00,North,0,0.0,0.0,58,0.00,CLR,,0.00,0.0,WeatherDisplay:10.37,2013-08-12 22:37:00,
2013-08-13 00:42:00,64.9,49.8,30.00,North,0,0.0,0.0,58,0.00,CLR,,0.00,0.0,WeatherDisplay:10.37,2013-08-12 22:42:00,
2013-08-13 00:47:00,64.8,50.1,30.00,NNW,338,0.0,0.0,59,0.00,CLR,,0.00,0.0,WeatherDisplay:10.37,2013-08-12 22:47:00,
2013-08-13 00:52:00,64.8,49.6,30.00,NNW,338,0.0,0.0,58,0.00,CLR,,0.00,0.0,WeatherDisplay:10.37,2013-08-12 22:52:00,
2013-08-13 00:57:00,64.8,50.1,30.00,NNW,338,0.0,0.0,59,0.00,CLR,,0.00,0.0,WeatherDisplay:10.37,2013-08-12 22:57:00,
2013-08-13 01:02:00,64.6,49.5,30.00,NNW,338,0.0,0.0,58,0.00,CLR,,0.00,0.0,WeatherDisplay:10.37,2013-08-12 23:02:00,
2013-08-13 01:07:00,64.4,49.8,30.00,NNW,338,0.0,0.0,59,0.00,CLR,,0.00,0.0,WeatherDisplay:10.37,2013-08-12 23:07:00,
2013-08-13 01:12:00,64.4,49.8,30.00,NNW,338,0.0,0.0,59,0.00,CLR,,0.00,0.0,WeatherDisplay:10.37,2013-08-12 23:12:00,
2013-08-13 01:17:00,64.2,49.6,30.00,NNW,338,0.0,0.0,59,0.00,CLR,,0.00,0.0,WeatherDisplay:10.37,2013-08-12 23:17:00,
2013-08-13 01:22:00,64.2,50.0,30.03,NNW,338,0.0,0.0,60,0.00,CLR,,0.00,0.0,WeatherDisplay:10.37,2013-08-12 23:22:00,
2013-08-13 01:27:00,64.0,49.9,30.03,NNW,338,0.0,0.0,60,0.00,CLR,,0.00,0.0,WeatherDisplay:10.37,2013-08-12 23:27:00,
2013-08-13 01:32:00,63.9,49.7,30.03,NNW,338,0.0,0.0,60,0.00,CLR,,0.00,0.0,WeatherDisplay:10.37,2013-08-12 23:32:00,
2013-08-13 01:37:00,63.7,49.5,30.03,NNW,338,0.0,0.0,60,0.00,CLR,,0.00,0.0,WeatherDisplay:10.37,2013-08-12 23:37:00,
2013-08-13 01:42:00,63.7,49.5,30.03,NNW,338,0.0,0.0,60,0.00,CLR,,0.00,0.0,WeatherDisplay:10.37,2013-08-12 23:42:00,
2013-08-13 01:47:00,63.5,49.4,30.03,NNW,338,0.0,0.0,60,0.00,CLR,,0.00,0.0,WeatherDisplay:10.37,2013-08-12 23:47:00,
2013-08-13 01:52:00,63.5,49.8,30.00,NNW,338,0.0,0.0,61,0.00,CLR,,0.00,0.0,WeatherDisplay:10.37,2013-08-12 23:52:00,
2013-08-13 01:57:00,63.3,49.6,30.00,NNW,338,0.0,0.0,61,0.00,CLR,,0.00,0.0,WeatherDisplay:10.37,2013-08-12 23:57:00,
2013-08-13 02:02:00,63.3,50.1,30.00,NNW,338,0.0,0.0,62,0.00,CLR,,0.00,0.0,WeatherDisplay:10.37,2013-08-13 00:02:00,
2013-08-13 02:07:00,63.1,49.9,30.03,NNW,338,0.0,0.0,62,0.00,CLR,,0.00,0.0,WeatherDisplay:10.37,2013-08-13 00:07:00,
2013-08-13 02:12:00,63.1,50.3,30.03,NNW,338,0.0,0.0,63,0.00,CLR,,0.00,0.0,WeatherDisplay:10.37,2013-08-13 00:12:00,
2013-08-13 02:17:00,63.0,50.2,30.03,NNW,338,0.0,0.0,63,0.00,CLR,,0.00,0.0,WeatherDisplay:10.37,2013-08-13 00:17:00,
2013-08-13 02:22:00,63.0,49.7,30.00,NNW,338,0.0,0.0,62,0.00,CLR,,0.00,0.0,WeatherDisplay:10.37,2013-08-13 00:22:00,
2013-08-13 02:27:00,62.8,50.0,30.00,NNW,338,0.0,0.0,63,0.00,CLR,,0.00,0.0,WeatherDisplay:10.37,2013-08-13 00:27:00,
2013-08-13 02:32:00,62.8,50.0,30.00,NNW,338,0.0,0.0,63,0.00,CLR,,0.00,0.0,WeatherDisplay:10.37,2013-08-13 00:32:00,
2013-08-13 02:37:00,62.6,49.8,30.00,NNW,338,0.0,0.0,63,0.00,CLR,,0.00,0.0,WeatherDisplay:10.37,2013-08-13 00:37:00,
2013-08-13 02:42:00,62.6,50.2,30.00,NNW,338,0.0,0.0,64,0.00,CLR,,0.00,0.0,WeatherDisplay:10.37,2013-08-13 00:42:00,
2013-08-13 02:47:00,62.6,49.8,30.00,NNW,338,0.0,0.0,63,0.00,CLR,,0.00,0.0,WeatherDisplay:10.37,2013-08-13 00:47:00,
2013-08-13 02:52:00,62.4,50.1,30.00,NNW,338,0.0,0.0,64,0.00,CLR,,0.00,0.0,WeatherDisplay:10.37,2013-08-13 00:52:00,
2013-08-13 02:57:00,62.4,50.1,30.00,NNW,338,0.0,0.0,64,0.00,CLR,,0.00,0.0,WeatherDisplay:10.37,2013-08-13 00:57:00,
2013-08-13 03:02:00,62.2,50.3,30.00,NNW,338,0.0,0.0,65,0.00,CLR,,0.00,0.0,WeatherDisplay:10.37,2013-08-13 01:02:00,
2013-08-13 03:07:00,62.2,49.9,30.00,NNW,338,0.0,0.0,64,0.00,CLR,,0.00,0.0,WeatherDisplay:10.37,2013-08-13 01:07:00,
2013-08-13 03:12:00,62.2,49.9,30.00,NNW,338,0.0,0.0,64,0.00,CLR,,0.00,0.0,WeatherDisplay:10.37,2013-08-13 01:12:00,
2013-08-13 03:17:00,62.1,50.2,30.00,NNW,338,0.0,0.0,65,0.00,CLR,,0.00,0.0,WeatherDisplay:10.37,2013-08-13 01:17:00,
2013-08-13 03:22:00,62.1,50.2,30.00,NNW,338,0.0,0.0,65,0.00,CLR,,0.00,0.0,WeatherDisplay:10.37,2013-08-13 01:22:00,
2013-08-13 03:27:00,61.9,50.0,30.00,NNW,338,0.0,0.0,65,0.00,CLR,,0.00,0.0,WeatherDisplay:10.37,2013-08-13 01:27:00,
2013-08-13 03:32:00,61.9,50.0,30.00,NNW,338,0.0,0.0,65,0.00,CLR,,0.00,0.0,WeatherDisplay:10.37,2013-08-13 01:32:00,
2013-08-13 03:37:00,61.7,49.8,30.00,NNW,338,0.0,0.0,65,0.00,CLR,,0.00,0.0,WeatherDisplay:10.37,2013-08-13 01:37:00,
2013-08-13 03:42:00,61.7,49.8,30.00,NNW,338,0.0,0.0,65,0.00,CLR,,0.00,0.0,WeatherDisplay:10.37,2013-08-13 01:42:00,
2013-08-13 03:47:00,61.7,49.8,30.00,NNW,338,0.0,0.0,65,0.00,CLR,,0.00,0.0,WeatherDisplay:10.37,2013-08-13 01:47:00,
2013-08-13 03:52:00,61.7,49.8,30.00,NNW,338,0.0,0.0,65,0.00,CLR,,0.00,0.0,WeatherDisplay:10.37,2013-08-13 01:52:00,
2013-08-13 03:57:00,61.5,49.6,30.00,NNW,338,0.0,0.0,65,0.00,CLR,,0.00,0.0,WeatherDisplay:10.37,2013-08-13 01:57:00,
2013-08-13 04:02:00,61.5,49.6,30.00,NNW,338,0.0,0.0,65,0.00,CLR,,0.00,0.0,WeatherDisplay:10.37,2013-08-13 02:02:00,
2013-08-13 04:07:00,61.3,49.5,30.00,NNW,338,0.0,0.0,65,0.00,CLR,,0.00,0.0,WeatherDisplay:10.37,2013-08-13 02:07:00,
2013-08-13 04:12:00,61.3,49.9,30.00,NNW,338,0.0,0.0,66,0.00,CLR,,0.00,0.0,WeatherDisplay:10.37,2013-08-13 02:12:00,
2013-08-13 04:17:00,61.3,49.9,30.00,NNW,338,0.0,0.0,66,0.00,CLR,,0.00,0.0,WeatherDisplay:10.37,2013-08-13 02:17:00,
2013-08-13 04:22:00,61.2,49.7,30.00,NNW,338,0.0,0.0,66,0.00,CLR,,0.00,0.0,WeatherDisplay:10.37,2013-08-13 02:22:00,
2013-08-13 04:27:00,61.2,49.7,30.00,NNW,338,0.0,0.0,66,0.00,CLR,,0.00,0.0,WeatherDisplay:10.37,2013-08-13 02:27:00,
2013-08-13 04:32:00,61.2,49.7,30.00,NNW,338,0.0,0.0,66,0.00,CLR,,0.00,0.0,WeatherDisplay:10.37,2013-08-13 02:32:00,
2013-08-13 04:37:00,61.0,49.5,30.00,NNW,338,0.0,0.0,66,0.00,CLR,,0.00,0.0,WeatherDisplay:10.37,2013-08-13 02:37:00,
2013-08-13 04:42:00,61.0,49.5,30.00,NNW,338,0.0,0.0,66,0.00,CLR,,0.00,0.0,WeatherDisplay:10.37,2013-08-13 02:42:00,
2013-08-13 04:47:00,61.0,49.5,30.00,NNW,338,0.0,0.0,66,0.00,CLR,,0.00,0.0,WeatherDisplay:10.37,2013-08-13 02:47:00,
2013-08-13 04:52:00,61.0,49.5,30.00,NNW,338,0.0,0.0,66,0.00,CLR,,0.00,0.0,WeatherDisplay:10.37,2013-08-13 02:52:00,
2013-08-13 04:57:00,61.0,49.5,30.00,NNW,338,0.0,0.0,66,0.00,CLR,,0.00,0.0,WeatherDisplay:10.37,2013-08-13 02:57:00,
2013-08-13 05:02:00,60.8,49.4,30.00,NNW,338,0.0,0.0,66,0.00,CLR,,0.00,0.0,WeatherDisplay:10.37,2013-08-13 03:02:00,
2013-08-13 05:07:00,60.8,49.4,30.00,NNW,338,1.6,1.6,66,0.00,OVC,,0.00,0.0,WeatherDisplay:10.37,2013-08-13 03:07:00,
2013-08-13 05:12:00,60.8,49.0,30.00,NW,315,2.3,2.3,65,0.00,OVC,,0.00,0.0,WeatherDisplay:10.37,2013-08-13 03:12:00,
2013-08-13 05:17:00,60.8,49.0,30.00,NW,315,0.0,0.0,65,0.00,OVC,,0.00,0.0,WeatherDisplay:10.37,2013-08-13 03:17:00,
2013-08-13 05:22:00,61.0,48.7,30.00,NW,315,0.0,0.0,64,0.00,OVC,,0.00,0.0,WeatherDisplay:10.37,2013-08-13 03:22:00,
2013-08-13 05:27:00,61.0,49.1,30.00,NNW,338,0.0,0.0,65,0.00,OVC,,0.00,0.0,WeatherDisplay:10.37,2013-08-13 03:27:00,
2013-08-13 05:32:00,61.0,49.1,30.00,NW,315,0.0,0.0,65,0.00,OVC,,0.00,0.0,WeatherDisplay:10.37,2013-08-13 03:32:00,
2013-08-13 05:37:00,61.2,49.3,30.00,NW,315,0.0,0.0,65,0.00,OVC,,0.00,0.0,WeatherDisplay:10.37,2013-08-13 03:37:00,
2013-08-13 05:42:00,61.2,48.9,30.00,NW,315,0.0,0.0,64,0.00,OVC,,0.00,0.0,WeatherDisplay:10.37,2013-08-13 03:42:00,
2013-08-13 05:47:00,61.2,48.9,30.00,NW,315,0.0,0.0,64,0.00,OVC,,0.00,0.0,WeatherDisplay:10.37,2013-08-13 03:47:00,
2013-08-13 05:52:00,61.3,49.5,30.00,NW,315,0.0,0.0,65,0.00,OVC,,0.00,2.1,WeatherDisplay:10.37,2013-08-13 03:52:00,
2013-08-13 05:57:00,61.3,49.5,30.00,NW,315,0.0,0.0,65,0.00,OVC,,0.00,4.6,WeatherDisplay:10.37,2013-08-13 03:57:00,
2013-08-13 06:01:00,61.3,49.5,30.00,NW,315,0.0,0.0,65,0.00,OVC,,0.00,5.9,WeatherDisplay:10.37,2013-08-13 04:01:00,
2013-08-13 06:06:00,61.5,49.6,30.00,NW,315,0.0,0.0,65,0.00,OVC,,0.00,8.9,WeatherDisplay:10.37,2013-08-13 04:06:00,
2013-08-13 06:11:00,61.7,49.8,30.00,NW,315,0.0,0.0,65,0.00,OVC,,0.00,11.4,WeatherDisplay:10.37,2013-08-13 04:11:00,
2013-08-13 06:16:00,61.9,50.4,30.00,NW,315,0.0,0.0,66,0.00,OVC,,0.00,13.9,WeatherDisplay:10.37,2013-08-13 04:16:00,
2013-08-13 06:21:00,62.1,50.6,30.00,NW,315,0.0,0.0,66,0.00,OVC,,0.00,16.5,WeatherDisplay:10.37,2013-08-13 04:21:00,
2013-08-13 06:26:00,62.4,50.9,30.00,NW,315,0.0,0.0,66,0.00,OVC,,0.00,19.0,WeatherDisplay:10.37,2013-08-13 04:26:00,
2013-08-13 06:31:00,62.6,50.7,30.00,NE,45,0.0,0.0,65,0.00,OVC,,0.00,21.6,WeatherDisplay:10.37,2013-08-13 04:31:00,
2013-08-13 06:36:00,63.1,51.2,30.00,NNE,22,0.0,0.0,65,0.00,OVC,,0.00,24.3,WeatherDisplay:10.37,2013-08-13 04:36:00,
2013-08-13 06:41:00,63.5,51.5,30.00,NNE,22,0.0,0.0,65,0.00,OVC,,0.00,26.9,WeatherDisplay:10.37,2013-08-13 04:41:00,
2013-08-13 06:46:00,63.7,51.7,30.00,NNE,22,0.0,0.0,65,0.00,OVC,,0.00,29.5,WeatherDisplay:10.37,2013-08-13 04:46:00,
2013-08-13 06:51:00,64.0,52.0,30.00,SSW,202,0.0,0.0,65,0.00,OVC,,0.00,32.2,WeatherDisplay:10.37,2013-08-13 04:51:00,
2013-08-13 06:56:00,64.2,52.2,30.00,SSW,202,0.0,0.0,65,0.00,OVC,,0.00,34.8,WeatherDisplay:10.37,2013-08-13 04:56:00,
2013-08-13 07:01:00,64.4,52.4,30.00,SSW,202,0.0,0.0,65,0.00,OVC,,0.00,37.6,WeatherDisplay:10.37,2013-08-13 05:01:00,
2013-08-13 07:06:00,64.6,52.1,29.97,West,270,0.0,0.0,64,0.00,OVC,,0.00,40.3,WeatherDisplay:10.37,2013-08-13 05:06:00,
2013-08-13 07:11:00,64.8,52.3,29.97,SSW,202,0.0,0.0,64,0.00,OVC,,0.00,43.1,WeatherDisplay:10.37,2013-08-13 05:11:00,
2013-08-13 07:16:00,65.1,52.6,29.97,SSW,202,0.0,0.0,64,0.00,OVC,,0.00,45.9,WeatherDisplay:10.37,2013-08-13 05:16:00,
2013-08-13 07:21:00,65.7,52.7,30.00,SE,135,0.0,0.0,63,0.00,OVC,,0.00,48.7,WeatherDisplay:10.37,2013-08-13 05:21:00,
2013-08-13 07:26:00,66.2,52.8,30.00,WNW,292,0.0,0.0,62,0.00,OVC,,0.00,51.5,WeatherDisplay:10.37,2013-08-13 05:26:00,
2013-08-13 07:31:00,66.6,53.1,30.00,SSW,202,0.0,0.0,62,0.00,OVC,,0.00,54.3,WeatherDisplay:10.37,2013-08-13 05:31:00,
2013-08-13 07:36:00,67.5,53.1,30.00,SSW,202,0.0,0.0,60,0.00,OVC,,0.00,57.1,WeatherDisplay:10.37,2013-08-13 05:36:00,
2013-08-13 07:41:00,68.4,53.0,29.97,WSW,248,3.5,3.5,58,0.00,OVC,,0.00,59.9,WeatherDisplay:10.37,2013-08-13 05:41:00,
2013-08-13 07:46:00,68.9,53.5,29.97,ESE,112,0.0,0.0,58,0.00,OVC,,0.00,62.7,WeatherDisplay:10.37,2013-08-13 05:46:00,
2013-08-13 07:51:00,69.4,54.0,29.97,ESE,112,1.4,0.0,58,0.00,OVC,,0.00,65.5,WeatherDisplay:10.37,2013-08-13 05:51:00,
2013-08-13 07:56:00,70.0,54.0,29.97,WSW,248,1.2,1.2,57,0.00,OVC,,0.00,68.3,WeatherDisplay:10.37,2013-08-13 05:56:00,
2013-08-13 08:01:00,70.5,54.5,29.97,SSW,202,2.3,2.3,57,0.00,OVC,,0.00,71.1,WeatherDisplay:10.37,2013-08-13 06:01:00,
2013-08-13 08:06:00,70.9,54.4,29.97,SSW,202,2.3,2.3,56,0.00,OVC,,0.00,73.9,WeatherDisplay:10.37,2013-08-13 06:06:00,
2013-08-13 08:11:00,71.4,54.4,29.97,SSW,202,0.0,0.0,55,0.00,OVC,,0.00,76.7,WeatherDisplay:10.37,2013-08-13 06:11:00,
2013-08-13 08:16:00,72.1,54.1,29.97,SSW,202,2.4,0.0,53,0.00,OVC,,0.00,79.7,WeatherDisplay:10.37,2013-08-13 06:16:00,
2013-08-13 08:21:00,72.7,54.6,29.94,SSW,202,4.3,4.3,53,0.00,OVC,,0.00,82.5,WeatherDisplay:10.37,2013-08-13 06:21:00,
2013-08-13 08:26:00,73.4,54.2,29.94,South,180,3.5,3.5,51,0.00,OVC,,0.00,85.3,WeatherDisplay:10.37,2013-08-13 06:26:00,
2013-08-13 08:31:00,73.8,54.0,29.94,SSW,202,3.5,3.5,50,0.00,OVC,,0.00,88.1,WeatherDisplay:10.37,2013-08-13 06:31:00,
2013-08-13 08:36:00,74.3,54.5,29.94,SSE,158,4.6,4.6,50,0.00,OVC,,0.00,90.9,WeatherDisplay:10.37,2013-08-13 06:36:00,
2013-08-13 08:41:00,74.7,54.2,29.94,SSW,202,2.3,2.3,49,0.00,OVC,,0.00,93.7,WeatherDisplay:10.37,2013-08-13 06:41:00,
2013-08-13 08:46:00,75.2,54.2,29.94,WSW,248,4.6,4.6,48,0.00,OVC,,0.00,96.4,WeatherDisplay:10.37,2013-08-13 06:46:00,
2013-08-13 08:51:00,75.6,53.3,29.94,SSW,202,6.9,6.9,46,0.00,OVC,,0.00,99.2,WeatherDisplay:10.37,2013-08-13 06:51:00,
2013-08-13 08:56:00,75.9,54.2,29.94,NW,315,4.6,4.6,47,0.00,OVC,,0.00,102.0,WeatherDisplay:10.37,2013-08-13 06:56:00,
2013-08-13 09:01:00,76.3,55.1,29.94,WSW,248,2.3,2.3,48,0.00,OVC,,0.00,104.6,WeatherDisplay:10.37,2013-08-13 07:01:00,
2013-08-13 09:06:00,76.8,55.1,29.94,SSW,202,3.5,3.5,47,0.00,OVC,,0.00,107.4,WeatherDisplay:10.37,2013-08-13 07:06:00,
2013-08-13 09:11:00,77.2,54.8,29.94,SW,225,3.5,3.5,46,0.00,OVC,,0.00,110.1,WeatherDisplay:10.37,2013-08-13 07:11:00,
2013-08-13 09:16:00,77.5,55.1,29.94,SSW,202,2.3,2.3,46,0.00,OVC,,0.00,112.7,WeatherDisplay:10.37,2013-08-13 07:16:00,
2013-08-13 09:21:00,78.1,55.0,29.94,WNW,292,2.3,2.3,45,0.00,OVC,,0.00,115.3,WeatherDisplay:10.37,2013-08-13 07:21:00,
2013-08-13 09:26:00,78.6,52.9,29.94,SSW,202,5.8,5.8,41,0.00,OVC,,0.00,118.0,WeatherDisplay:10.37,2013-08-13 07:26:00,
2013-08-13 09:31:00,79.0,53.3,29.94,WSW,248,5.8,5.8,41,0.00,OVC,,0.00,120.5,WeatherDisplay:10.37,2013-08-13 07:31:00,
2013-08-13 09:36:00,79.2,53.4,29.91,West,270,5.8,5.8,41,0.00,OVC,,0.00,123.1,WeatherDisplay:10.37,2013-08-13 07:36:00,
2013-08-13 09:41:00,79.5,53.8,29.91,WSW,248,6.9,6.9,41,0.00,OVC,,0.00,125.6,WeatherDisplay:10.37,2013-08-13 07:41:00,
2013-08-13 09:46:00,79.7,53.2,29.91,WSW,248,6.9,6.9,40,0.00,OVC,,0.00,128.0,WeatherDisplay:10.37,2013-08-13 07:46:00,
2013-08-13 09:51:00,80.1,53.6,29.91,SSW,202,5.9,5.9,40,0.00,OVC,,0.00,130.5,WeatherDisplay:10.37,2013-08-13 07:51:00,
2013-08-13 09:56:00,80.4,52.5,29.91,WSW,248,8.1,8.1,38,0.00,OVC,,0.00,132.8,WeatherDisplay:10.37,2013-08-13 07:56:00,
2013-08-13 10:01:00,80.6,53.4,29.91,SSW,202,5.8,5.8,39,0.00,OVC,,0.00,135.1,WeatherDisplay:10.37,2013-08-13 08:01:00,
2013-08-13 10:06:00,81.0,53.0,29.91,WSW,248,6.2,6.2,38,0.00,OVC,,0.00,137.4,WeatherDisplay:10.37,2013-08-13 08:06:00,
2013-08-13 10:11:00,81.3,52.6,29.91,WSW,248,4.6,4.6,37,0.00,OVC,,0.00,139.8,WeatherDisplay:10.37,2013-08-13 08:11:00,
2013-08-13 10:16:00,81.7,51.4,29.91,WSW,248,4.6,4.6,35,0.00,OVC,,0.00,142.1,WeatherDisplay:10.37,2013-08-13 08:16:00,
2013-08-13 10:21:00,81.9,53.0,29.91,WSW,248,9.2,9.2,37,0.00,OVC,,0.00,144.2,WeatherDisplay:10.37,2013-08-13 08:21:00,
2013-08-13 10:26:00,82.2,51.1,29.91,WNW,292,4.6,4.6,34,0.00,OVC,,0.00,146.4,WeatherDisplay:10.37,2013-08-13 08:26:00,
2013-08-13 10:31:00,82.4,52.8,29.91,SSW,202,2.9,2.9,36,0.00,OVC,,0.00,148.3,WeatherDisplay:10.37,2013-08-13 08:31:00,
2013-08-13 10:36:00,82.8,52.3,29.91,WNW,292,4.6,4.6,35,0.00,OVC,,0.00,150.5,WeatherDisplay:10.37,2013-08-13 08:36:00,
2013-08-13 10:41:00,83.1,51.0,29.91,WSW,248,6.9,6.9,33,0.00,OVC,,0.00,152.5,WeatherDisplay:10.37,2013-08-13 08:41:00,
2013-08-13 10:46:00,83.1,51.8,29.91,SSW,202,4.6,4.6,34,0.00,OVC,,0.00,154.3,WeatherDisplay:10.37,2013-08-13 08:46:00,
2013-08-13 10:51:00,83.5,52.2,29.91,WSW,248,5.8,5.8,34,0.00,OVC,,0.00,156.3,WeatherDisplay:10.37,2013-08-13 08:51:00,
2013-08-13 10:56:00,83.5,51.3,29.91,WSW,248,3.8,3.8,33,0.00,OVC,,0.00,158.1,WeatherDisplay:10.37,2013-08-13 08:56:00,
2013-08-13 11:01:00,83.7,51.5,29.91,SSW,202,6.9,6.9,33,0.00,OVC,,0.00,159.7,WeatherDisplay:10.37,2013-08-13 09:01:00,
2013-08-13 11:06:00,83.8,51.7,29.91,SW,225,4.6,4.6,33,0.00,OVC,,0.00,161.5,WeatherDisplay:10.37,2013-08-13 09:06:00,
2013-08-13 11:11:00,84.0,51.0,29.91,WSW,248,6.9,6.9,32,0.00,OVC,,0.00,163.2,WeatherDisplay:10.37,2013-08-13 09:11:00,
2013-08-13 11:16:00,84.4,52.1,29.91,WSW,248,3.5,3.5,33,0.00,OVC,,0.00,164.7,WeatherDisplay:10.37,2013-08-13 09:16:00,
2013-08-13 11:21:00,84.7,50.8,29.88,SSW,202,6.9,6.9,31,0.00,OVC,,0.00,166.2,WeatherDisplay:10.37,2013-08-13 09:21:00,
2013-08-13 11:26:00,84.9,51.8,29.88,WSW,248,6.9,6.9,32,0.00,OVC,,0.00,167.6,WeatherDisplay:10.37,2013-08-13 09:26:00,
2013-08-13 11:31:00,84.9,52.6,29.88,WSW,248,1.2,1.4,33,0.00,OVC,,0.00,169.1,WeatherDisplay:10.37,2013-08-13 09:31:00,
2013-08-13 11:36:00,85.3,52.1,29.91,WSW,248,3.5,3.5,32,0.00,OVC,,0.00,170.4,WeatherDisplay:10.37,2013-08-13 09:36:00,
2013-08-13 11:41:00,85.6,53.2,29.91,WSW,248,3.8,4.0,33,0.00,OVC,,0.00,171.6,WeatherDisplay:10.37,2013-08-13 09:41:00,
2013-08-13 11:46:00,85.8,52.5,29.91,WNW,292,5.8,5.8,32,0.00,OVC,,0.00,172.8,WeatherDisplay:10.37,2013-08-13 09:46:00,
2013-08-13 11:51:00,86.2,52.0,29.94,WSW,248,7.1,7.1,31,0.00,OVC,,0.00,173.9,WeatherDisplay:10.37,2013-08-13 09:51:00,
2013-08-13 11:56:00,86.2,53.7,29.94,WSW,248,5.6,5.6,33,0.00,OVC,,0.00,175.1,WeatherDisplay:10.37,2013-08-13 09:56:00,
2013-08-13 12:01:00,86.4,52.2,29.94,NW,315,5.8,5.8,31,0.00,OVC,,0.00,175.9,WeatherDisplay:10.37,2013-08-13 10:01:00,
2013-08-13 12:06:00,86.4,53.0,29.91,WSW,248,6.2,6.2,32,0.00,OVC,,0.00,176.9,WeatherDisplay:10.37,2013-08-13 10:06:00,
2013-08-13 12:11:00,86.4,53.0,29.91,WNW,292,8.1,8.1,32,0.00,OVC,,0.00,177.7,WeatherDisplay:10.37,2013-08-13 10:11:00,
2013-08-13 12:16:00,86.7,52.5,29.91,WSW,248,8.1,8.1,31,0.00,OVC,,0.00,178.5,WeatherDisplay:10.37,2013-08-13 10:16:00,
2013-08-13 12:21:00,87.1,53.6,29.91,WNW,292,3.5,3.5,32,0.00,OVC,,0.00,179.2,WeatherDisplay:10.37,2013-08-13 10:21:00,
2013-08-13 12:26:00,87.1,53.6,29.91,WSW,248,7.1,7.1,32,0.00,OVC,,0.00,179.8,WeatherDisplay:10.37,2013-08-13 10:26:00,
2013-08-13 12:31:00,86.9,52.6,29.91,WNW,292,5.8,5.8,31,0.00,OVC,,0.00,180.3,WeatherDisplay:10.37,2013-08-13 10:31:00,
2013-08-13 12:36:00,85.5,53.1,29.91,NW,315,6.9,6.9,33,0.00,OVC,,0.00,180.8,WeatherDisplay:10.37,2013-08-13 10:36:00,
2013-08-13 12:41:00,84.4,53.7,29.91,NNW,338,6.9,6.9,35,0.00,OVC,,0.00,181.2,WeatherDisplay:10.37,2013-08-13 10:41:00,
2013-08-13 12:46:00,83.1,53.4,29.91,NNW,338,6.9,6.9,36,0.00,OVC,,0.00,181.5,WeatherDisplay:10.37,2013-08-13 10:46:00,
2013-08-13 12:51:00,82.6,53.7,29.91,ENE,68,9.2,9.2,37,0.00,OVC,,0.00,181.8,WeatherDisplay:10.37,2013-08-13 10:51:00,
2013-08-13 12:56:00,82.2,54.1,29.91,WNW,292,5.8,5.8,38,0.00,OVC,,0.00,182.0,WeatherDisplay:10.37,2013-08-13 10:56:00,
2013-08-13 13:01:00,82.0,54.6,29.91,WNW,292,4.6,4.6,39,0.00,OVC,,0.00,182.0,WeatherDisplay:10.37,2013-08-13 11:01:00,
2013-08-13 13:06:00,82.2,54.8,29.91,WNW,292,9.2,9.2,39,0.00,OVC,,0.00,182.0,WeatherDisplay:10.37,2013-08-13 11:06:00,
2013-08-13 13:11:00,82.4,54.2,29.91,NNW,338,10.4,10.4,38,0.00,OVC,,0.00,182.0,WeatherDisplay:10.37,2013-08-13 11:11:00,
2013-08-13 13:16:00,82.4,54.2,29.91,NNE,22,8.7,8.7,38,0.00,OVC,,0.00,181.8,WeatherDisplay:10.37,2013-08-13 11:16:00,
2013-08-13 13:21:00,82.6,54.4,29.91,NW,315,6.9,6.9,38,0.00,OVC,,0.00,181.7,WeatherDisplay:10.37,2013-08-13 11:21:00,
2013-08-13 13:26:00,82.8,53.8,29.91,NNW,338,10.5,10.5,37,0.00,OVC,,0.00,181.3,WeatherDisplay:10.37,2013-08-13 11:26:00,
2013-08-13 13:31:00,82.8,53.1,29.91,WNW,292,8.1,8.1,36,0.00,OVC,,0.00,181.0,WeatherDisplay:10.37,2013-08-13 11:31:00,
2013-08-13 13:36:00,82.6,52.2,29.91,West,270,8.1,8.1,35,0.00,OVC,,0.00,180.5,WeatherDisplay:10.37,2013-08-13 11:36:00,
2013-08-13 13:41:00,82.8,53.1,29.91,NW,315,8.1,8.1,36,0.00,OVC,,0.00,180.0,WeatherDisplay:10.37,2013-08-13 11:41:00,
2013-08-13 13:46:00,82.8,53.1,29.91,NNW,338,6.9,6.9,36,0.00,OVC,,0.00,179.5,WeatherDisplay:10.37,2013-08-13 11:46:00,
2013-08-13 13:51:00,83.1,52.6,29.91,WNW,292,5.8,6.2,35,0.00,OVC,,0.00,178.9,WeatherDisplay:10.37,2013-08-13 11:51:00,
2013-08-13 13:56:00,83.3,52.8,29.91,NNW,338,6.9,6.9,35,0.00,OVC,,0.00,178.2,WeatherDisplay:10.37,2013-08-13 11:56:00,
2013-08-13 14:01:00,83.5,52.9,29.91,WSW,248,6.9,6.9,35,0.00,OVC,,0.00,177.4,WeatherDisplay:10.37,2013-08-13 12:01:00,
2013-08-13 14:06:00,83.8,53.3,29.91,WNW,292,12.7,12.7,35,0.00,OVC,,0.00,176.4,WeatherDisplay:10.37,2013-08-13 12:06:00,
2013-08-13 14:11:00,84.0,54.2,29.91,NNE,22,10.4,10.4,36,0.00,OVC,,0.00,175.6,WeatherDisplay:10.37,2013-08-13 12:11:00,
2013-08-13 14:16:00,84.4,54.5,29.91,WNW,292,12.7,12.7,36,0.00,OVC,,0.00,174.6,WeatherDisplay:10.37,2013-08-13 12:16:00,
2013-08-13 14:21:00,84.6,55.4,29.91,NW,315,11.2,11.2,37,0.00,OVC,,0.00,173.4,WeatherDisplay:10.37,2013-08-13 12:21:00,
2013-08-13 14:26:00,84.0,54.9,29.91,NW,315,10.4,10.4,37,0.00,OVC,,0.00,172.3,WeatherDisplay:10.37,2013-08-13 12:26:00,
2013-08-13 14:31:00,82.9,54.0,29.91,NNW,338,8.1,8.1,37,0.00,OVC,,0.00,171.1,WeatherDisplay:10.37,2013-08-13 12:31:00,
2013-08-13 14:36:00,82.4,54.2,29.91,NNW,338,5.8,6.2,38,0.00,OVC,,0.00,169.8,WeatherDisplay:10.37,2013-08-13 12:36:00,
2013-08-13 14:41:00,82.6,54.4,29.91,ESE,112,11.5,11.5,38,0.00,OVC,,0.00,168.5,WeatherDisplay:10.37,2013-08-13 12:41:00,
2013-08-13 14:46:00,82.8,55.3,29.91,NNE,22,9.2,9.2,39,0.00,OVC,,0.00,167.0,WeatherDisplay:10.37,2013-08-13 12:46:00,
2013-08-13 14:51:00,83.1,55.6,29.91,NNW,338,10.4,10.4,39,0.00,OVC,,0.00,165.5,WeatherDisplay:10.37,2013-08-13 12:51:00,
2013-08-13 14:56:00,83.5,55.9,29.91,NNW,338,10.4,10.4,39,0.00,OVC,,0.00,164.0,WeatherDisplay:10.37,2013-08-13 12:56:00,
2013-08-13 15:01:00,83.7,55.4,29.91,NNW,338,11.5,11.5,38,0.00,OVC,,0.00,162.4,WeatherDisplay:10.37,2013-08-13 13:01:00,
2013-08-13 15:06:00,84.0,55.7,29.94,NNW,338,8.1,8.1,38,0.00,OVC,,0.00,160.7,WeatherDisplay:10.37,2013-08-13 13:06:00,
2013-08-13 15:11:00,84.2,55.1,29.94,West,270,13.0,13.0,37,0.00,OVC,,0.00,158.9,WeatherDisplay:10.37,2013-08-13 13:11:00,
2013-08-13 15:16:00,84.2,54.4,29.94,NNW,338,12.7,12.7,36,0.00,OVC,,0.00,157.2,WeatherDisplay:10.37,2013-08-13 13:16:00,
2013-08-13 15:21:00,83.5,55.2,29.88,WNW,292,9.2,9.2,38,0.00,OVC,,0.00,155.3,WeatherDisplay:10.37,2013-08-13 13:21:00,
2013-08-13 15:26:00,83.7,54.6,29.88,NW,315,11.5,11.5,37,0.00,OVC,,0.00,153.4,WeatherDisplay:10.37,2013-08-13 13:26:00,
2013-08-13 15:31:00,83.5,54.5,29.88,North,0,10.4,10.4,37,0.00,OVC,,0.00,151.5,WeatherDisplay:10.37,2013-08-13 13:31:00,
2013-08-13 15:36:00,83.3,55.0,29.88,WNW,292,9.2,9.2,38,0.00,OVC,,0.00,149.5,WeatherDisplay:10.37,2013-08-13 13:36:00,
2013-08-13 15:41:00,82.9,54.0,29.88,NE,45,12.7,12.7,37,0.00,OVC,,0.00,147.3,WeatherDisplay:10.37,2013-08-13 13:41:00,
2013-08-13 15:46:00,82.2,54.1,29.88,WNW,292,11.5,11.5,38,0.00,OVC,,0.00,145.4,WeatherDisplay:10.37,2013-08-13 13:46:00,
2013-08-13 15:51:00,82.2,54.8,29.91,NNW,338,9.2,9.2,39,0.00,OVC,,0.00,143.2,WeatherDisplay:10.37,2013-08-13 13:51:00,
2013-08-13 15:56:00,82.8,53.8,29.91,ENE,68,13.8,13.8,37,0.00,OVC,,0.00,140.9,WeatherDisplay:10.37,2013-08-13 13:56:00,
2013-08-13 16:01:00,83.1,53.4,29.91,WNW,292,12.7,12.7,36,0.00,OVC,,0.00,138.6,WeatherDisplay:10.37,2013-08-13 14:01:00,
2013-08-13 16:06:00,82.9,52.5,29.88,NNW,338,6.9,6.9,35,0.00,OVC,,0.00,136.3,WeatherDisplay:10.37,2013-08-13 14:06:00,
2013-08-13 16:11:00,82.4,52.0,29.88,WNW,292,10.5,10.5,35,0.00,OVC,,0.00,134.0,WeatherDisplay:10.37,2013-08-13 14:11:00,
2013-08-13 16:16:00,82.2,51.8,29.88,NNW,338,12.3,12.3,35,0.00,OVC,,0.00,131.7,WeatherDisplay:10.37,2013-08-13 14:16:00,
2013-08-13 16:21:00,82.0,52.4,29.88,NNE,22,8.1,8.7,36,0.00,OVC,,0.00,129.2,WeatherDisplay:10.37,2013-08-13 14:21:00,
2013-08-13 16:26:00,81.7,51.4,29.88,NNE,22,10.4,10.4,35,0.00,OVC,,0.00,126.7,WeatherDisplay:10.37,2013-08-13 14:26:00,
2013-08-13 16:31:00,80.8,50.6,29.88,NNW,338,11.5,11.5,35,0.00,OVC,,0.00,124.2,WeatherDisplay:10.37,2013-08-13 14:31:00,
2013-08-13 16:36:00,80.2,50.9,29.91,North,0,10.2,10.2,36,0.00,OVC,,0.00,121.8,WeatherDisplay:10.37,2013-08-13 14:36:00,
2013-08-13 16:41:00,79.7,51.8,29.91,NW,315,13.8,13.8,38,0.00,OVC,,0.00,119.3,WeatherDisplay:10.37,2013-08-13 14:41:00,
2013-08-13 16:46:00,78.6,52.3,29.91,NW,315,8.7,8.7,40,0.00,OVC,,0.00,116.7,WeatherDisplay:10.37,2013-08-13 14:46:00,
2013-08-13 16:51:00,78.1,52.5,29.94,WNW,292,6.2,6.2,41,0.00,OVC,,0.00,114.0,WeatherDisplay:10.37,2013-08-13 14:51:00,
2013-08-13 16:56:00,77.5,52.0,29.94,WNW,292,6.9,6.9,41,0.00,OVC,,0.00,111.4,WeatherDisplay:10.37,2013-08-13 14:56:00,
2013-08-13 17:01:00,77.2,51.7,29.94,NNW,338,10.4,10.4,41,0.00,OVC,,0.00,108.7,WeatherDisplay:10.37,2013-08-13 15:01:00,
2013-08-13 17:06:00,76.8,51.3,29.94,NNW,338,8.1,8.1,41,0.00,OVC,,0.00,105.9,WeatherDisplay:10.37,2013-08-13 15:06:00,
2013-08-13 17:11:00,76.6,51.8,29.94,WNW,292,11.5,11.5,42,0.00,OVC,,0.00,103.3,WeatherDisplay:10.37,2013-08-13 15:11:00,
2013-08-13 17:16:00,76.5,52.3,29.94,NW,315,8.1,8.1,43,0.00,OVC,,0.00,100.5,WeatherDisplay:10.37,2013-08-13 15:16:00,
2013-08-13 17:21:00,76.6,51.8,29.94,NNE,22,8.1,8.1,42,0.00,OVC,,0.00,97.8,WeatherDisplay:10.37,2013-08-13 15:21:00,
2013-08-13 17:26:00,76.8,52.0,29.94,North,0,8.1,8.1,42,0.00,OVC,,0.00,95.0,WeatherDisplay:10.37,2013-08-13 15:26:00,
2013-08-13 17:31:00,77.0,52.8,29.94,WNW,292,11.5,11.5,43,0.00,OVC,,0.00,92.2,WeatherDisplay:10.37,2013-08-13 15:31:00,
2013-08-13 17:36:00,76.8,53.3,29.94,NNE,22,10.4,10.4,44,0.00,OVC,,0.00,89.4,WeatherDisplay:10.37,2013-08-13 15:36:00,
2013-08-13 17:41:00,76.6,53.1,29.94,NW,315,8.5,8.5,44,0.00,OVC,,0.00,86.6,WeatherDisplay:10.37,2013-08-13 15:41:00,
2013-08-13 17:46:00,76.5,52.9,29.94,North,0,8.1,8.1,44,0.00,OVC,,0.00,83.8,WeatherDisplay:10.37,2013-08-13 15:46:00,
2013-08-13 17:51:00,76.3,53.4,29.94,WNW,292,8.1,8.1,45,0.00,OVC,,0.00,81.0,WeatherDisplay:10.37,2013-08-13 15:51:00,
2013-08-13 17:56:00,76.1,53.2,29.94,WNW,292,9.2,9.2,45,0.00,OVC,,0.00,78.2,WeatherDisplay:10.37,2013-08-13 15:56:00,
2013-08-13 18:01:00,76.3,54.0,29.94,NNW,338,5.8,6.2,46,0.00,OVC,,0.00,75.4,WeatherDisplay:10.37,2013-08-13 16:01:00,
2013-08-13 18:06:00,76.3,54.0,29.94,North,0,8.1,8.1,46,0.00,OVC,,0.00,72.4,WeatherDisplay:10.37,2013-08-13 16:06:00,
2013-08-13 18:11:00,76.5,54.1,29.94,NNW,338,7.1,7.1,46,0.00,OVC,,0.00,69.6,WeatherDisplay:10.37,2013-08-13 16:11:00,
2013-08-13 18:16:00,76.6,54.3,29.94,WNW,292,6.2,6.2,46,0.00,OVC,,0.00,66.8,WeatherDisplay:10.37,2013-08-13 16:16:00,
2013-08-13 18:21:00,76.8,53.9,29.94,NNW,338,8.1,8.1,45,0.00,OVC,,0.00,64.0,WeatherDisplay:10.37,2013-08-13 16:21:00,
2013-08-13 18:26:00,76.8,53.3,29.94,NNW,338,11.5,11.5,44,0.00,OVC,,0.00,61.2,WeatherDisplay:10.37,2013-08-13 16:26:00,
2013-08-13 18:31:00,77.0,52.8,29.94,NNW,338,8.1,8.1,43,0.00,OVC,,0.00,58.4,WeatherDisplay:10.37,2013-08-13 16:31:00,
2013-08-13 18:36:00,76.8,52.6,29.94,NNW,338,9.2,9.2,43,0.00,OVC,,0.00,55.6,WeatherDisplay:10.37,2013-08-13 16:36:00,
2013-08-13 18:41:00,76.8,52.6,29.94,NNW,338,11.2,11.2,43,0.00,OVC,,0.00,52.8,WeatherDisplay:10.37,2013-08-13 16:41:00,
2013-08-13 18:46:00,76.6,51.8,29.94,WSW,248,11.5,11.5,42,0.00,OVC,,0.00,50.0,WeatherDisplay:10.37,2013-08-13 16:46:00,
2013-08-13 18:51:00,76.5,51.0,29.97,WNW,292,7.1,7.1,41,0.00,OVC,,0.00,47.2,WeatherDisplay:10.37,2013-08-13 16:51:00,
2013-08-13 18:56:00,76.3,50.8,29.97,NNW,338,8.1,8.1,41,0.00,OVC,,0.00,44.4,WeatherDisplay:10.37,2013-08-13 16:56:00,
2013-08-13 19:01:00,76.1,50.7,29.97,North,0,10.4,10.4,41,0.00,OVC,,0.00,41.6,WeatherDisplay:10.37,2013-08-13 17:01:00,
2013-08-13 19:06:00,75.9,50.5,29.97,NW,315,9.2,9.2,41,0.00,OVC,,0.00,38.8,WeatherDisplay:10.37,2013-08-13 17:06:00,
2013-08-13 19:12:00,75.7,50.4,29.97,NNW,338,10.4,10.4,41,0.00,OVC,,0.00,35.6,WeatherDisplay:10.37,2013-08-13 17:12:00,
2013-08-13 19:17:00,75.4,50.0,29.97,NNW,338,9.2,9.2,41,0.00,OVC,,0.00,32.8,WeatherDisplay:10.37,2013-08-13 17:17:00,
2013-08-13 19:22:00,75.2,49.9,30.00,NNW,338,7.8,7.8,41,0.00,OVC,,0.00,30.2,WeatherDisplay:10.37,2013-08-13 17:22:00,
2013-08-13 19:27:00,75.2,49.9,30.00,NNW,338,6.9,6.9,41,0.00,OVC,,0.00,27.6,WeatherDisplay:10.37,2013-08-13 17:27:00,
2013-08-13 19:32:00,75.0,49.7,30.00,NNE,22,9.2,9.2,41,0.00,OVC,,0.00,24.9,WeatherDisplay:10.37,2013-08-13 17:32:00,
2013-08-13 19:37:00,75.0,49.7,30.00,NNW,338,10.4,10.4,41,0.00,OVC,,0.00,22.3,WeatherDisplay:10.37,2013-08-13 17:37:00,
2013-08-13 19:42:00,74.7,49.4,30.00,WNW,292,8.1,8.1,41,0.00,OVC,,0.00,19.6,WeatherDisplay:10.37,2013-08-13 17:42:00,
2013-08-13 19:47:00,74.7,49.4,30.00,WNW,292,12.7,12.7,41,0.00,OVC,,0.00,17.0,WeatherDisplay:10.37,2013-08-13 17:47:00,
2013-08-13 19:52:00,74.5,49.2,30.00,WNW,292,6.9,7.4,41,0.00,OVC,,0.00,14.5,WeatherDisplay:10.37,2013-08-13 17:52:00,
2013-08-13 19:57:00,74.3,49.1,30.00,NW,315,5.8,5.8,41,0.00,OVC,,0.00,12.0,WeatherDisplay:10.37,2013-08-13 17:57:00,
2013-08-13 20:02:00,74.1,49.6,30.00,NW,315,9.2,9.2,42,0.00,CLR,,0.00,0.0,WeatherDisplay:10.37,2013-08-13 18:02:00,
2013-08-13 20:07:00,73.9,49.4,30.00,WNW,292,8.1,8.1,42,0.00,CLR,,0.00,0.0,WeatherDisplay:10.37,2013-08-13 18:07:00,
2013-08-13 20:12:00,73.6,49.7,30.00,WNW,292,10.4,10.4,43,0.00,CLR,,0.00,0.0,WeatherDisplay:10.37,2013-08-13 18:12:00,
2013-08-13 20:17:00,73.4,49.5,30.00,NNE,22,5.8,6.0,43,0.00,CLR,,0.00,0.0,WeatherDisplay:10.37,2013-08-13 18:17:00,
2013-08-13 20:22:00,73.2,50.0,29.94,North,0,6.9,6.9,44,0.00,CLR,,0.00,0.0,WeatherDisplay:10.37,2013-08-13 18:22:00,
2013-08-13 20:27:00,73.0,49.8,29.94,NNE,22,9.2,9.2,44,0.00,CLR,,0.00,0.0,WeatherDisplay:10.37,2013-08-13 18:27:00,
2013-08-13 20:32:00,72.9,50.3,29.94,WNW,292,7.8,7.8,45,0.00,CLR,,0.00,0.0,WeatherDisplay:10.37,2013-08-13 18:32:00,
2013-08-13 20:37:00,72.7,50.1,29.97,NW,315,10.4,10.4,45,0.00,CLR,,0.00,0.0,WeatherDisplay:10.37,2013-08-13 18:37:00,
2013-08-13 20:42:00,72.5,49.9,29.97,NW,315,10.4,10.4,45,0.00,CLR,,0.00,0.0,WeatherDisplay:10.37,2013-08-13 18:42:00,
2013-08-13 20:47:00,72.3,50.4,29.97,NW,315,8.1,8.1,46,0.00,CLR,,0.00,0.0,WeatherDisplay:10.37,2013-08-13 18:47:00,
2013-08-13 20:52:00,72.3,51.0,30.00,North,0,8.1,8.1,47,0.00,CLR,,0.00,0.0,WeatherDisplay:10.37,2013-08-13 18:52:00,
2013-08-13 20:57:00,72.1,50.8,30.00,NW,315,6.0,6.0,47,0.00,CLR,,0.00,0.0,WeatherDisplay:10.37,2013-08-13 18:57:00,
2013-08-13 21:02:00,72.1,50.2,30.00,NW,315,7.4,7.4,46,0.00,CLR,,0.00,0.0,WeatherDisplay:10.37,2013-08-13 19:02:00,
2013-08-13 21:07:00,72.0,50.6,29.97,NW,315,5.8,5.8,47,0.00,CLR,,0.00,0.0,WeatherDisplay:10.37,2013-08-13 19:07:00,
2013-08-13 21:12:00,72.0,50.6,29.97,NNE,22,8.1,8.1,47,0.00,CLR,,0.00,0.0,WeatherDisplay:10.37,2013-08-13 19:12:00,
2013-08-13 21:17:00,72.0,51.2,29.97,NNW,338,8.1,8.1,48,0.00,CLR,,0.00,0.0,WeatherDisplay:10.37,2013-08-13 19:17:00,
2013-08-13 21:22:00,71.8,51.6,29.97,NNE,22,6.9,6.9,49,0.00,CLR,,0.00,0.0,WeatherDisplay:10.37,2013-08-13 19:22:00,
2013-08-13 21:27:00,71.8,51.0,29.97,NNW,338,5.9,5.9,48,0.00,CLR,,0.00,0.0,WeatherDisplay:10.37,2013-08-13 19:27:00,
2013-08-13 21:32:00,71.6,50.9,29.97,WNW,292,6.9,6.9,48,0.00,CLR,,0.00,0.0,WeatherDisplay:10.37,2013-08-13 19:32:00,
2013-08-13 21:37:00,71.6,51.4,30.00,WNW,292,11.5,11.5,49,0.00,CLR,,0.00,0.0,WeatherDisplay:10.37,2013-08-13 19:37:00,
2013-08-13 21:42:00,71.4,51.3,30.00,NNE,22,6.9,6.9,49,0.00,CLR,,0.00,0.0,WeatherDisplay:10.37,2013-08-13 19:42:00,
2013-08-13 21:47:00,71.4,50.7,30.00,NNW,338,8.1,8.1,48,0.00,CLR,,0.00,0.0,WeatherDisplay:10.37,2013-08-13 19:47:00,
2013-08-13 21:52:00,71.4,51.3,30.00,WNW,292,9.2,9.2,49,0.00,CLR,,0.00,0.0,WeatherDisplay:10.37,2013-08-13 19:52:00,
2013-08-13 21:57:00,71.2,50.5,30.00,North,0,8.1,8.1,48,0.00,CLR,,0.00,0.0,WeatherDisplay:10.37,2013-08-13 19:57:00,
2013-08-13 22:02:00,71.2,50.5,30.00,ENE,68,8.1,8.1,48,0.00,CLR,,0.00,0.0,WeatherDisplay:10.37,2013-08-13 20:02:00,
2013-08-13 22:07:00,71.2,51.1,30.00,North,0,8.1,8.1,49,0.00,CLR,,0.00,0.0,WeatherDisplay:10.37,2013-08-13 20:07:00,
2013-08-13 22:12:00,71.2,51.6,30.00,NNW,338,9.2,9.2,50,0.00,CLR,,0.00,0.0,WeatherDisplay:10.37,2013-08-13 20:12:00,
2013-08-13 22:17:00,71.2,51.6,30.00,ENE,68,10.4,10.4,50,0.00,CLR,,0.00,0.0,WeatherDisplay:10.37,2013-08-13 20:17:00,
2013-08-13 22:22:00,71.1,52.0,30.00,NNE,22,6.4,6.4,51,0.00,CLR,,0.00,0.0,WeatherDisplay:10.37,2013-08-13 20:22:00,
2013-08-13 22:27:00,71.1,52.0,30.00,NNW,338,10.4,10.4,51,0.00,CLR,,0.00,0.0,WeatherDisplay:10.37,2013-08-13 20:27:00,
2013-08-13 22:32:00,70.9,51.8,30.00,NNW,338,8.1,8.1,51,0.00,CLR,,0.00,0.0,WeatherDisplay:10.37,2013-08-13 20:32:00,
2013-08-13 22:37:00,70.7,52.2,30.00,NNW,338,8.1,8.1,52,0.00,CLR,,0.00,0.0,WeatherDisplay:10.37,2013-08-13 20:37:00,
2013-08-13 22:42:00,70.7,53.2,30.00,WNW,292,5.8,5.8,54,0.00,CLR,,0.00,0.0,WeatherDisplay:10.37,2013-08-13 20:42:00,
2013-08-13 22:47:00,70.3,52.9,30.00,WNW,292,9.2,9.2,54,0.00,CLR,,0.00,0.0,WeatherDisplay:10.37,2013-08-13 20:47:00,
2013-08-13 22:52:00,70.2,52.7,30.00,WNW,292,6.9,6.9,54,0.00,CLR,,0.00,0.0,WeatherDisplay:10.37,2013-08-13 20:52:00,
2013-08-13 22:57:00,70.0,52.1,30.00,NNW,338,8.1,8.1,53,0.00,CLR,,0.00,0.0,WeatherDisplay:10.37,2013-08-13 20:57:00,
2013-08-13 23:02:00,69.8,53.4,30.00,NNW,338,9.2,9.2,56,0.00,CLR,,0.00,0.0,WeatherDisplay:10.37,2013-08-13 21:02:00,
2013-08-13 23:07:00,69.6,54.2,30.00,NNW,338,8.1,8.1,58,0.00,CLR,,0.00,0.0,WeatherDisplay:10.37,2013-08-13 21:07:00,
2013-08-13 23:12:00,69.1,52.7,30.00,WNW,292,14.5,14.5,56,0.00,CLR,,0.00,0.0,WeatherDisplay:10.37,2013-08-13 21:12:00,
2013-08-13 23:17:00,68.9,53.0,30.00,NNW,338,5.8,5.8,57,0.00,CLR,,0.00,0.0,WeatherDisplay:10.37,2013-08-13 21:17:00,
2013-08-13 23:22:00,68.2,53.3,30.03,NNW,338,8.1,8.1,59,0.00,CLR,,0.00,0.0,WeatherDisplay:10.37,2013-08-13 21:22:00,
2013-08-13 23:27:00,66.9,53.9,30.03,NNW,338,6.9,6.9,63,0.00,RA,,0.00,0.0,WeatherDisplay:10.37,2013-08-13 21:27:00,
2013-08-13 23:32:00,66.2,52.8,30.03,NNE,22,4.6,4.6,62,0.00,RA,,0.01,0.0,WeatherDisplay:10.37,2013-08-13 21:32:00,
2013-08-13 23:37:00,65.3,52.4,30.03,ESE,112,2.9,2.9,63,0.01,RA,,0.01,0.0,WeatherDisplay:10.37,2013-08-13 21:37:00,
2013-08-13 23:42:00,64.6,53.0,30.03,NNE,22,4.6,4.6,66,0.01,RA,,0.01,0.0,WeatherDisplay:10.37,2013-08-13 21:42:00,
2013-08-13 23:47:00,64.2,52.2,30.03,NNW,338,3.1,3.1,65,0.01,CLR,,0.01,0.0,WeatherDisplay:10.37,2013-08-13 21:47:00,
2013-08-13 23:52:00,63.9,52.3,30.00,NW,315,4.6,4.6,66,0.01,CLR,,0.01,0.0,WeatherDisplay:10.37,2013-08-13 21:52:00,
2013-08-13 23:57:00,63.7,52.1,30.00,WNW,292,2.3,2.3,66,0.01,CLR,,0.01,0.0,WeatherDisplay:10.37,2013-08-13 21:57:00,